Weather in Delfzijl

Netherlands     53°20′00″N   6°54′23″E
temp.,
°C
wind,
m/s
gust,
m/s
humid.,
%
clouds,
%
prec.,
mm/h
press.,
hPa
HPBL,
m
26 june, sun
sun2623:00+17ne3392100 1.1 101248
02:00+17sse1191100 2.7 101212
05:00+16sw4794100 0.4 1012148
08:00+17wsw4891100 0.4 1013413
11:00+20wsw566772 0.0 10151004
14:00+22sw455399 0.0 10161453
17:00+21s1261100 0.0 1016863
20:00+19se2377100 0.1 1016176
27 june, mon
mon2723:00+16ese239059 0.1 101676
02:00+15ese2495100 0.5 1016127
05:00+15ene2499100 7.6 1015157
08:00+15n1298100 12.4 1015149
11:00+16ene1195100 2.3 1015145
14:00+19wsw348091 3.8 1016730
17:00+20wnw456911 1.7 10171041
20:00+18w3781100 2.5 1018391
28 june, tue
tue2823:00+13w34911 0.0 102047
02:00+11sw22911 0.0 102022
05:00+10ssw33901 0.0 102131
08:00+14sw36765 0.0 1021227
11:00+19sw46570 0.0 1021988
14:00+22ssw465011 0.0 10202014
17:00+23s354763 0.0 10192066
20:00+19nnw34742 0.0 1019131
29 june, wed
wed2923:00+15e478045 0.0 1019116
02:00+14e49816 0.0 1018137
05:00+14ese477999 0.0 1017109
08:00+18se487299 0.0 1017225
11:00+23se45595 0.0 1016598
14:00+26sse3652100 0.0 10152220
17:00+22se61073100 0.1 1015268
20:00+24se357442 0.1 1014180
30 june, thu
thu3023:00+20nne227495 0.0 101516
02:00+18e477091 0.0 1014116
05:00+18ese495697 0.0 1014191
08:00+19ese486967 0.0 1013208
11:00+21ese4773100 0.1 1013301
14:00+27ese56522 0.3 10121433
17:00+28ese57495 0.0 10111826
20:00+24ene611640 0.0 1010355